Regional Weather Roundup
Issued by NWS

Home | Current Version | Previous Version | Text Only | Print | Product List | Glossary Off
Versions: 1 2 3 4 5 6 7 8 9 10 11 12 13 14 15 16 17 18 19 20 21 22 23 24 25 26 27 28 29 30 31 32 33 34 35 36 37 38 39 40 41 42 43 44 45 46 47 48

000
ASUS45 KBOI 290310
RWRID
WEATHER ROUNDUP FOR IDAHO
NATIONAL WEATHER SERVICE BOISE ID
900 PM MDT SAT MAR 28 2015

NOTE: "FAIR" INDICATES FEW OR NO CLOUDS BELOW 12000 FEET
WITH NO SIGNIFICANT WEATHER AND/OR OBSTRUCTIONS TO VISIBILITY

IDZ012-014-290400-
SOUTHWEST IDAHO


CITY           SKY/WX    TMP DP  RH WIND       PRES   REMARKS
BOISE          CLEAR     53  26  35 N7        30.27S
CALDWELL       CLEAR     48  27  43 NE5       30.28S
$$

IDZ016-017-290400-
SOUTHCENTRAL IDAHO


CITY           SKY/WX    TMP DP  RH WIND       PRES   REMARKS
BURLEY         CLEAR     48  21  34 SW14G23   30.25R
JEROME         CLEAR     48  19  31 W21       30.25S
TWIN FALLS     CLEAR     47  22  37 SW13      30.28R
$$

IDZ019>023-290400-
SOUTHEAST IDAHO


CITY           SKY/WX    TMP DP  RH WIND       PRES   REMARKS
IDAHO FALLS    CLOUDY    50  21  32 SW17G30   30.19R
POCATELLO      CLEAR     49  18  29 SW25G32   30.22F
REXBURG        CLOUDY    50  16  25 NE10      30.20R
$$

IDZ006-010-011-018-031-032-290400-
CENTRAL IDAHO MOUNTAINS


CITY           SKY/WX    TMP DP  RH WIND       PRES   REMARKS
MCCALL         PTCLDY    41  26  55 CALM      30.28S
HAILEY         CLEAR     52  16  24 NW8       30.20R
STANLEY          N/A     36  23  59 CALM      30.32R
SALMON         CLEAR     43  21  42 N8        30.25R
CHALLIS        CLEAR     47  18  31 W10       30.25R
$$

IDZ002-004-006-007-026-290400-
NORTHERN IDAHO


CITY           SKY/WX    TMP DP  RH WIND       PRES   REMARKS
LEWISTON       PTCLDY    55  34  45 CALM      30.31R
LOWELL           N/A     48  45  89 N3        30.34R
COEUR D`ALENE  CLOUDY    52  30  43 S12       30.25R
MULLAN PASS    CLOUDY    32  32 100 CALM      30.26R
$$


USA.gov is the U.S. government's official web portal to all federal, state and local government web resources and services.